カタログに戻る

COSMOS 2251 DEB

運用中LEO
NORAD 40233·DEBRIS·🇷🇺 Russia

打ち上げ Jun 16, 1993 から Plesetsk Cosmodrome

Loading…

次のパス (今後24時間)

TLE

経年Source: Space-Track

元期: Sep 12, 2026, 09:21 UTC

1 40233U 93036BVN 26255.38975154  .00002064  00000-0  42383-3 0  9990
2 40233  73.9379 298.0247 0047227 308.9767  50.7195 14.60651850631302

AllMySatでCOSMOS 2251 DEBをリアルタイム追跡

Download on the App Store